Regional Weather Roundup
Issued by NWS Little Rock, AR

Home | Current Version | Previous Version | Graphics & Text | Print | Product List | Glossary On
Versions: 1 2 3 4 5 6 7 8 9 10 11 12 13 14 15 16 17 18 19 20 21 22 23 24 25 26 27 28 29 30 31 32 33 34 35 36 37 38 39 40 41 42 43 44 45 46 47 48 49 50
000
ASUS44 KLZK 301505
RWRLZK

WEATHER ROUNDUP FOR ARKANSAS
NATIONAL WEATHER SERVICE LITTLE ROCK AR
900 AM CST FRI JAN 30 2015

NOTE: "FAIR" INDICATES FEW OR NO CLOUDS BELOW 12,000 FEET WITH NO
SIGNIFICANT WEATHER AND/OR OBSTRUCTIONS TO VISIBILITY.

ARZ001-003-010-029-301600-
NORTHWEST ARKANSAS

CITY           SKY/WX    TMP DP  RH WIND       PRES   REMARKS
FAYETTEVILLE   MOSUNNY   29  25  85 CALM      30.51R
FORT SMITH     MOSUNNY   35  29  78 CALM      30.54R
HARRISON       SUNNY     31  25  78 N5        30.51R WCI  26
BENTONVILLE    SUNNY     30  23  74 E9        30.51S WCI  22
ROGERS         MOSUNNY   32  26  78 E8        30.51R WCI  25
SILOAM SPGS    MOSUNNY   30  21  69 E5        30.52S WCI  25
HIGHFILL       SUNNY     30  25  81 NE5       30.50R WCI  25
SPRINGDALE     SUNNY     30  25  80 E10       30.52R WCI  21
$$

ARZ004-005-016-301600-
NORTH CENTRAL ARKANSAS

CITY           SKY/WX    TMP DP  RH WIND       PRES   REMARKS
BATESVILLE     SUNNY     36  25  64 N7        30.54R
FLIPPIN        SUNNY     34  23  64 N5        30.54R WCI  30
MTN HOME       SUNNY     31  25  78 VRB3      30.52R
$$

ARZ040-041-301600-
WEST CENTRAL ARKANSAS

CITY           SKY/WX    TMP DP  RH WIND       PRES   REMARKS
MENA           MOSUNNY   37  32  81 CALM      30.51R
MOUNT IDA      MOSUNNY   35  31  85 CALM      30.49F
$$

ARZ009-017-025-026-028-301600-
NORTHEAST ARKANSAS

CITY           SKY/WX    TMP DP  RH WIND       PRES   REMARKS
CORNING        FAIR      34  27  75 N8        30.55R WCI  27
JONESBORO      SUNNY     35  27  72 N8        30.53R WCI  29
NEWPORT        SUNNY     35  28  76 N13       30.55R WCI  26
WALNUT RIDGE   SUNNY     34  25  69 N9        30.55R WCI  26
BLYTHEVILLE    SUNNY     38  29  70 N13       30.53R
NW BLYTHEVILLE SUNNY     36  28  75 N13       30.53R
$$

ARZ022-023-033-042-044-301600-
CENTRAL ARKANSAS

CITY           SKY/WX    TMP DP  RH WIND       PRES   REMARKS
LITTLE ROCK    MOSUNNY   40  27  59 NE9       30.54R
N LITTLE ROCK  MOSUNNY   37  29  75 NE7       30.54R
JACKSONVILLE   SUNNY     37  28  68 NE9       30.52R
SEARCY         SUNNY     36  28  73 N10       30.55R
HOT SPRINGS    MOSUNNY   38  27  64 VRB3      30.53S
RUSSELLVILLE   SUNNY     37  27  67 CALM      30.53R
CLINTON        FAIR      36  27  69 N3        30.55S
$$

ARZ036-301600-
EAST ARKANSAS

CITY           SKY/WX    TMP DP  RH WIND       PRES   REMARKS
WEST MEMPHIS   SUNNY     38  29  70 N12       30.51R
$$

ARZ050-053-066-070-073-301600-
SOUTHWEST ARKANSAS

CITY           SKY/WX    TMP DP  RH WIND       PRES   REMARKS
ARKADELPHIA    FAIR      39  31  73 NE9       30.55S
CAMDEN         MIX PCPN  37  30  75 MISG      30.54S
TEXARKANA      SUNNY     39  30  70 NE9G17    30.52S
EL DORADO      SUNNY     40  29  64 NE8G18    30.52R
DE QUEEN       SUNNY     36  32  85 E3        30.51S
$$

ARZ056-057-069-301600-
SOUTHEAST ARKANSAS

CITY           SKY/WX    TMP DP  RH WIND       PRES   REMARKS
PINE BLUFF     SUNNY     38  28  67 N10       30.54R
STUTTGART      SUNNY     37  28  70 N12       30.54R
MONTICELLO     SUNNY     40  30  67 NE8       30.52R

$$




USA.gov is the U.S. government's official web portal to all federal, state and local government web resources and services.